Wind_Speed
15 14 13 11 10 8 7 5 5 4 3 2 3 4 5 7 8 10 12 12 13 14 15 14 14 14 13 12 11 11 10 7 6 5 3 2 1 0 1 1 2 2 3 3
17 16 14 12 10 9 7 6 6 5 4 3 3 4 5 6 7 9 11 12 13 14 15 15 14 14 13 12 12 11 10 8 6 4 4 2 2 1 1 1 1 2 3 4
19 18 15 13 12 10 9 8 8 7 5 5 4 5 6 6 7 8 10 11 12 14 14 14 14 14 13 12 11 11 10 8 6 5 4 3 3 2 2 2 2 3 4 4
22 20 18 16 14 12 12 10 9 8 7 7 5 5 8 7 7 8 9 11 12 13 13 14 14 13 13 13 11 11 10 8 7 6 5 3 3 3 3 3 3 3 4 4
23 22 20 19 17 15 14 12 11 10 9 9 8 6 8 9 8 7 8 10 11 12 13 14 14 13 12 12 11 10 10 9 7 6 5 4 3 3 4 4 4 4 4 5
24 23 22 21 19 17 15 14 13 12 10 10 10 8 7 9 8 7 8 10 11 11 12 13 13 12 12 12 11 10 10 9 8 6 5 4 4 4 5 5 5 5 5 5
25 24 24 22 21 20 18 15 13 12 11 12 11 9 9 8 8 8 9 10 10 11 12 13 13 12 12 11 10 10 10 9 8 7 5 5 5 5 6 6 6 6 6 6
27 26 25 24 23 22 20 18 15 13 12 12 13 11 10 9 9 9 10 10 10 11 11 12 12 11 11 11 10 10 10 9 8 8 6 6 6 6 6 7 7 7 7 7
28 27 26 25 25 24 23 21 18 17 15 13 13 13 11 11 11 10 10 10 10 10 10 11 12 11 11 10 10 10 9 9 8 8 7 7 7 6 7 7 8 8 7 8
30 28 28 26 26 26 25 23 21 18 17 15 14 13 12 12 11 11 11 10 10 10 11 11 11 10 10 10 10 10 9 9 9 8 8 8 7 7 7 7 7 7 7 8
30 30 29 29 28 27 26 25 23 20 19 16 13 13 14 13 12 12 11 10 10 10 11 11 10 10 10 10 9 9 9 9 9 9 9 8 8 8 8 8 8 8 9 9
31 31 30 31 30 29 28 26 24 23 22 19 16 14 16 14 13 13 13 11 11 10 10 11 10 10 10 10 10 9 9 9 9 9 9 9 9 9 9 9 10 10 10 10
32 32 31 30 31 31 30 28 27 25 24 22 18 15 17 14 14 14 14 13 12 12 12 11 11 10 10 10 10 10 10 10 10 10 9 9 10 10 10 11 11 11 11 11
33 33 32 28 26 29 30 29 28 27 25 23 21 18 18 16 15 15 15 14 14 13 12 12 11 11 11 11 11 11 11 10 11 11 10 10 11 11 11 12 13 13 12 12
34 34 33 32 31 30 29 29 29 28 26 24 22 20 18 18 17 16 16 15 15 14 13 13 12 12 12 12 12 12 12 12 12 13 13 13 12 13 13 13 13 13 13 13
35 35 34 33 33 32 31 30 30 29 28 27 25 23 21 20 18 18 17 16 16 16 15 15 14 14 14 14 14 14 13 14 14 15 14 14 14 15 15 15 15 15 15 15
36 35 34 33 33 34 34 32 31 30 30 28 27 25 24 22 21 20 20 19 18 17 17 16 17 17 17 17 17 16 16 16 16 16 16 16 16 17 16 16 17 16 16 16
37 36 35 33 33 35 33 33 32 31 31 30 29 28 26 25 23 22 21 20 20 20 19 18 19 19 20 19 18 18 18 18 18 18 18 18 18 19 18 18 18 19 18 18
38 37 36 35 34 34 35 34 32 32 32 31 30 29 28 27 26 25 24 22 22 22 22 22 22 22 22 22 20 20 19 19 20 19 19 20 20 20 20 20 20 19 19 20
39 38 38 37 35 34 35 34 32 32 33 32 31 30 29 28 28 28 26 25 25 24 24 25 25 25 25 25 24 23 22 22 22 22 22 22 22 22 22 22 22 22 22 22
40 40 39 38 37 36 36 35 33 33 33 32 31 31 30 30 30 30 29 28 28 27 27 27 28 28 28 28 27 25 25 25 25 25 25 25 24 24 24 24 24 24 25 24
40 40 40 39 37 38 38 36 36 35 34 33 32 32 31 31 31 31 31 30 30 30 30 30 30 30 31 31 30 29 29 28 28 28 29 28 27 27 27 26 26 26 27 27
41 41 41 41 41 41 40 38 37 36 35 35 34 34 33 33 33 33 33 32 32 32 32 32 33 33 33 32 32 32 32 32 31 31 30 30 30 29 29 29 29 29 29 30
41 42 42 41 41 41 40 39 38 37 37 36 36 36 36 35 35 35 35 35 35 34 34 34 34 34 34 34 34 34 35 34 33 33 32 32 32 32 32 32 31 32 32 31
40 41 42 43 42 41 41 41 40 39 38 38 37 37 37 37 36 36 36 36 36 36 35 36 36 35 36 36 36 35 35 35 35 34 35 35 35 35 34 34 34 34 34 34
39 39 41 42 42 43 43 42 41 41 40 39 39 39 38 38 38 37 36 36 36 36 36 37 37 37 37 37 36 35 35 37 37 37 37 37 37 37 37 36 36 36 36 34
Wind_Direction
209 209 211 214 210 207 217 224 241 249 280 341 7 0 359 3 4 5 4 4 5 4 3 4 6 7 7 8 6 5 5 2 3 12 19 20 23 65 181 180 203 217 218 221
213 213 213 215 217 220 224 230 246 257 277 309 330 336 340 350 357 359 360 1 1 1 360 359 2 2 2 5 6 3 2 357 355 0 359 358 357 320 305 261 247 244 241 237
216 218 218 220 223 229 229 229 241 258 278 299 314 325 323 334 341 351 355 354 355 356 359 359 360 359 0 1 358 357 357 353 347 348 348 346 351 351 347 319 293 277 265 256
219 221 221 224 227 228 235 236 242 256 272 284 297 291 302 316 323 337 348 350 350 352 357 358 357 357 357 358 356 354 352 351 344 334 337 334 337 327 318 318 305 288 277 266
223 224 224 225 228 229 235 240 248 258 267 273 284 279 286 303 310 321 334 341 343 347 352 354 354 354 357 358 356 354 352 353 348 336 329 324 320 315 313 319 315 298 285 275
225 225 226 227 229 231 236 244 253 260 266 269 271 275 282 294 300 309 320 330 336 341 345 349 351 353 355 355 358 357 355 351 346 339 328 329 329 316 317 315 310 304 296 286
228 228 228 230 231 233 235 241 252 258 262 265 269 270 275 287 293 302 312 322 327 334 339 344 348 352 354 353 355 357 355 353 351 342 335 336 337 329 323 320 312 306 301 296
228 230 230 231 233 235 236 238 239 244 254 265 271 269 275 282 287 294 304 312 317 326 334 339 345 349 351 352 354 356 355 353 350 344 340 336 335 334 328 327 319 309 303 299
227 230 232 233 234 235 238 238 240 246 250 254 264 270 273 278 284 289 296 303 309 318 327 334 339 345 347 350 352 352 352 351 348 344 336 332 329 332 328 325 325 313 310 307
228 230 233 234 234 235 236 238 241 242 248 254 263 269 267 274 277 283 289 295 302 311 321 329 335 339 343 348 349 348 348 348 345 341 337 333 330 329 325 326 327 323 316 312
228 230 234 234 234 236 236 238 241 242 243 246 255 263 266 266 270 276 279 285 294 302 312 321 326 332 339 344 345 344 343 341 340 338 335 333 330 328 324 322 321 323 325 319
229 229 232 235 236 235 237 238 240 242 248 249 247 254 264 263 264 269 271 275 285 293 303 308 315 322 331 336 337 337 339 338 336 334 332 331 330 328 323 321 318 316 317 315
228 228 230 233 236 236 237 238 240 242 246 249 248 253 260 260 260 261 263 268 276 283 293 301 305 313 321 326 329 330 331 335 334 331 329 327 325 324 323 321 321 320 315 314
229 229 228 229 234 238 237 238 240 241 243 248 248 245 253 255 257 257 257 261 268 276 284 292 298 305 313 318 320 322 323 326 327 326 324 323 322 320 320 322 319 318 316 313
229 230 230 229 231 236 237 238 239 240 239 243 248 248 246 250 254 255 255 258 262 269 275 280 287 294 301 306 309 312 314 317 318 319 317 317 317 316 316 317 316 314 312 311
229 231 231 232 234 235 235 236 238 240 240 242 246 249 248 248 252 253 255 258 259 263 268 272 278 285 291 295 299 300 303 309 311 311 310 310 311 311 310 311 311 310 309 309
230 231 232 233 235 236 236 236 238 240 242 244 246 249 251 250 252 254 254 255 257 260 264 267 272 278 283 287 291 294 299 302 307 307 305 302 304 304 304 306 307 307 308 307
230 232 233 234 236 236 238 238 238 240 242 244 246 248 250 250 252 252 253 252 253 256 260 264 268 272 278 283 287 290 295 300 303 303 302 297 296 299 298 302 304 306 306 305
229 231 233 234 236 238 239 239 239 241 243 244 246 248 250 251 252 252 252 252 253 255 259 262 266 271 277 281 284 287 290 295 299 300 301 296 294 296 296 300 303 302 302 304
230 231 233 235 235 237 241 239 240 242 244 243 245 247 249 251 251 251 251 252 254 256 258 261 265 270 275 278 281 283 286 290 293 294 296 295 290 290 293 296 298 297 298 299
229 230 232 234 236 237 239 239 239 241 243 243 245 246 248 250 251 252 252 253 254 257 259 260 264 268 271 275 277 279 283 285 287 289 291 291 289 289 289 291 293 294 296 297
230 231 232 233 234 236 238 240 240 242 243 245 245 246 248 249 251 252 253 254 254 257 260 261 263 265 267 271 273 277 280 281 283 284 287 288 288 288 289 290 292 294 296 296
230 230 231 232 234 237 239 241 242 243 244 245 245 246 248 250 252 254 255 256 256 258 260 260 261 263 264 267 269 272 276 278 280 283 286 287 289 288 287 288 290 292 295 296
231 231 233 234 235 237 239 240 242 244 244 246 247 248 249 251 254 256 257 258 257 258 259 259 260 262 265 267 270 270 272 274 277 280 284 286 286 285 284 286 289 290 291 294
233 233 234 235 236 237 238 239 241 243 244 246 247 249 250 253 255 257 258 259 260 260 260 261 263 264 265 267 269 269 269 272 274 278 280 281 282 282 282 284 285 288 289 290
233 234 234 235 236 237 238 239 240 242 243 246 248 249 251 254 256 257 259 260 261 261 262 263 263 263 263 265 268 269 270 272 273 275 278 280 281 280 280 282 284 285 286 287
Height
5933 5936 5938 5940 5941 5943 5945 5946 5946 5946 5945 5945 5944 5944 5942 5940 5938 5936 5934 5932 5930 5927 5924 5921 5918 5916 5913 5911 5909 5907 5905 5904 5902 5901 5900 5900 5900 5899 5899 5899 5899 5899 5899 5899
5931 5933 5936 5937 5939 5941 5942 5944 5945 5944 5944 5944 5944 5943 5942 5940 5939 5937 5935 5933 5931 5928 5925 5921 5919 5916 5914 5911 5910 5908 5906 5904 5903 5902 5901 5900 5900 5899 5899 5899 5899 5899 5899 5899
5928 5931 5933 5935 5937 5939 5941 5942 5943 5943 5943 5943 5943 5943 5942 5940 5938 5937 5935 5933 5931 5928 5925 5922 5920 5917 5914 5912 5910 5908 5906 5904 5903 5902 5901 5900 5899 5899 5899 5899 5899 5898 5898 5898
5924 5927 5929 5932 5934 5937 5938 5940 5941 5941 5942 5943 5943 5945 5941 5939 5938 5937 5935 5933 5931 5929 5926 5923 5920 5917 5914 5912 5910 5908 5906 5904 5903 5901 5901 5900 5899 5899 5899 5898 5898 5897 5897 5897
5920 5923 5926 5929 5931 5934 5936 5937 5938 5939 5940 5941 5941 5942 5943 5938 5937 5936 5935 5933 5931 5928 5926 5923 5920 5917 5915 5912 5910 5908 5906 5904 5903 5901 5900 5899 5899 5898 5898 5898 5897 5896 5896 5896
5916 5919 5922 5925 5928 5930 5932 5935 5936 5937 5938 5939 5939 5939 5940 5937 5936 5935 5934 5932 5930 5928 5925 5922 5920 5917 5915 5912 5910 5908 5906 5904 5903 5901 5900 5899 5898 5898 5897 5897 5896 5895 5895 5894
5913 5915 5918 5921 5924 5927 5929 5933 5935 5936 5937 5938 5936 5936 5937 5935 5934 5933 5932 5931 5929 5927 5925 5922 5919 5917 5914 5912 5910 5908 5906 5904 5902 5901 5900 5899 5898 5897 5896 5896 5895 5894 5893 5893
5908 5912 5914 5917 5920 5923 5925 5929 5933 5935 5936 5936 5933 5933 5934 5932 5931 5931 5930 5929 5927 5926 5924 5921 5919 5916 5914 5912 5910 5908 5906 5904 5902 5901 5900 5899 5898 5897 5895 5895 5893 5892 5892 5891
5904 5907 5909 5912 5915 5918 5921 5924 5927 5930 5930 5931 5932 5930 5930 5929 5929 5928 5928 5927 5926 5924 5923 5921 5918 5916 5913 5911 5909 5908 5906 5904 5902 5901 5899 5898 5897 5896 5895 5893 5892 5891 5890 5889
5897 5901 5903 5906 5910 5912 5916 5919 5921 5924 5926 5928 5929 5928 5928 5926 5926 5926 5925 5924 5924 5922 5921 5919 5917 5915 5913 5911 5909 5907 5905 5903 5902 5900 5899 5897 5896 5895 5894 5892 5891 5889 5888 5888
5891 5896 5898 5901 5904 5907 5911 5913 5916 5919 5921 5924 5926 5928 5923 5923 5923 5923 5922 5922 5921 5920 5919 5918 5916 5914 5912 5910 5908 5906 5904 5903 5901 5900 5898 5897 5895 5894 5892 5891 5890 5888 5887 5886
5885 5889 5893 5896 5898 5901 5904 5907 5911 5914 5915 5917 5921 5925 5919 5919 5920 5920 5919 5919 5919 5918 5917 5916 5914 5913 5911 5909 5907 5905 5903 5902 5900 5899 5897 5896 5894 5893 5891 5890 5888 5887 5886 5884
5878 5882 5886 5890 5894 5896 5898 5901 5904 5908 5910 5912 5915 5920 5915 5915 5916 5916 5916 5916 5916 5916 5915 5914 5912 5911 5910 5908 5906 5904 5902 5901 5899 5898 5896 5894 5893 5892 5890 5888 5887 5885 5884 5882
5871 5875 5880 5886 5888 5889 5892 5895 5898 5901 5904 5906 5909 5912 5911 5911 5912 5912 5912 5912 5912 5912 5912 5911 5910 5909 5908 5906 5904 5903 5901 5899 5898 5896 5895 5893 5891 5890 5888 5887 5885 5884 5882 5880
5863 5868 5872 5876 5879 5882 5885 5888 5891 5894 5898 5901 5903 5904 5905 5906 5907 5908 5908 5908 5909 5909 5909 5908 5907 5906 5905 5903 5902 5900 5899 5897 5896 5894 5893 5891 5889 5888 5886 5885 5883 5881 5880 5878
5855 5860 5864 5868 5871 5874 5878 5881 5884 5887 5890 5893 5896 5898 5899 5901 5902 5903 5903 5904 5905 5905 5905 5904 5904 5903 5902 5900 5899 5898 5896 5894 5893 5891 5890 5888 5887 5885 5884 5882 5880 5878 5877 5875
5848 5852 5857 5861 5864 5866 5870 5874 5877 5880 5883 5886 5889 5892 5893 5895 5896 5897 5898 5899 5900 5900 5900 5900 5899 5899 5898 5897 5896 5894 5893 5891 5890 5888 5887 5885 5884 5882 5880 5879 5877 5875 5873 5872
5840 5844 5849 5853 5856 5859 5865 5867 5870 5873 5875 5878 5881 5883 5886 5888 5890 5891 5892 5893 5894 5895 5895 5895 5894 5894 5893 5892 5891 5890 5889 5888 5886 5884 5882 5881 5880 5878 5877 5875 5873 5871 5870 5868
5831 5836 5840 5845 5848 5852 5855 5858 5862 5865 5868 5871 5873 5876 5878 5881 5883 5884 5885 5887 5888 5889 5889 5889 5889 5888 5888 5887 5886 5886 5885 5884 5882 5880 5879 5877 5875 5874 5872 5871 5869 5867 5865 5864
5822 5827 5832 5836 5840 5844 5847 5850 5854 5858 5860 5863 5865 5868 5871 5873 5875 5877 5878 5880 5881 5882 5883 5883 5883 5883 5882 5882 5881 5880 5880 5879 5877 5876 5874 5873 5871 5869 5867 5866 5864 5862 5861 5859
5813 5817 5822 5826 5830 5835 5837 5841 5846 5850 5852 5855 5857 5860 5862 5864 5867 5869 5870 5872 5873 5874 5875 5876 5876 5876 5876 5875 5874 5874 5874 5873 5872 5870 5869 5867 5865 5864 5862 5861 5859 5857 5856 5853
5803 5808 5812 5817 5822 5827 5828 5832 5836 5840 5843 5846 5849 5851 5854 5856 5858 5860 5862 5863 5865 5866 5867 5868 5868 5868 5868 5867 5867 5866 5866 5866 5865 5863 5862 5860 5859 5858 5856 5855 5853 5851 5849 5848
5792 5798 5802 5807 5812 5814 5818 5822 5826 5830 5833 5836 5839 5842 5845 5847 5849 5851 5852 5854 5855 5857 5858 5858 5859 5859 5859 5859 5859 5858 5858 5858 5857 5855 5854 5853 5851 5850 5850 5848 5847 5845 5843 5840
5781 5786 5791 5796 5800 5805 5809 5812 5816 5820 5823 5826 5829 5832 5835 5837 5839 5841 5843 5844 5846 5847 5848 5848 5849 5849 5850 5850 5850 5849 5849 5849 5848 5847 5846 5845 5844 5843 5842 5840 5839 5837 5835 5833
5771 5776 5780 5785 5790 5794 5798 5802 5806 5809 5813 5816 5819 5822 5824 5827 5829 5831 5832 5834 5835 5836 5837 5838 5839 5840 5840 5840 5840 5840 5839 5839 5839 5838 5837 5836 5835 5834 5833 5831 5830 5828 5826 5824
5761 5766 5770 5774 5779 5783 5787 5791 5795 5799 5803 5806 5809 5811 5814 5816 5818 5820 5822 5824 5825 5826 5827 5827 5828 5829 5829 5830 5830 5830 5830 5829 5829 5828 5828 5827 5825 5824 5823 5822 5820 5818 5817 5814